Regional Weather Roundup
Issued by NWS

Home | Current Version | Previous Version | Text Only | Print | Product List | Glossary Off
Versions: 1 2 3 4 5 6 7 8 9 10 11 12 13 14 15 16 17 18 19 20 21 22 23 24 25 26 27 28 29 30 31 32 33 34 35 36 37 38 39 40 41 42 43 44 45 46 47 48 49 50

395
ASUS43 KDMX 120106
RWRIA

WEATHER ROUNDUP FOR IOWA
NATIONAL WEATHER SERVICE DES MOINES IA
700 PM CST MON DEC 11 2017

NOTE: "FAIR" INDICATES FEW OR NO CLOUDS BELOW 12,000 FEET WITH NO
SIGNIFICANT WEATHER AND/OR OBSTRUCTIONS TO VISIBILITY.

* - THESE STATIONS ARE NOT NWS STATIONS...THUS NOT UNDER NWS
QUALITY CONTROL.  THEY ALSO DO NOT REPORT WEATHER SUCH
AS PRECIPITATION OR FOG.

IAZ001>003-012>014-020>022-031>034-043>046-120200-
   NORTHWEST IOWA

CITY           SKY/WX    TMP DP  RH WIND       PRES   REMARKS
CARROLL *      CLOUDY    30  21  69 NW23G31   30.16R WCI  17
CHEROKEE *     PTCLDY    27  22  81 N10G16    30.21R WCI  17
DENISON *      CLOUDY    32  23  69 N14G23    30.20R WCI  22
LE MARS *      CLEAR     28  23  80 NW13G18   30.24R WCI  18
ORANGE CITY *  CLEAR     27  23  86 N12G18    30.23R WCI  16
SHELDON *      PTCLDY    25  19  80 N18G29    30.21R WCI  11
SIOUX CITY     CLEAR     32  24  72 NW24G30   30.24R WCI  19
SPENCER        PTCLDY    23  16  74 N26G38    30.19R WCI   6
STORM LAKE *   PTCLDY    25  19  80 N22G31    30.17R WCI  10
$$

IAZ055>058-069>071-079>083-090>094-120200-
   SOUTHWEST IOWA

CITY           SKY/WX    TMP DP  RH WIND       PRES   REMARKS
ATLANTIC *     CLOUDY    32  23  69 N13G24    30.17R WCI  22
AUDUBON *      CLOUDY    30  23  74 NW14G21   30.16R WCI  20
CLARINDA *     PTCLDY    37  27  65 N22         N/A  WCI  27
COUNCIL BLFS * MOCLDY    36  27  69 NW23G32   30.18R WCI  24
CRESTON *      CLOUDY    34  27  75 NW25G33   30.13R WCI  21
HARLAN  *      PTCLDY    30  25  80 NW10      30.22R WCI  21
LAMONI         CLOUDY    36  27  69 N21G32    30.09R WCI  25
RED OAK *      MOCLDY    36  25  64 N15G24    30.18R WCI  26
SHENANDOAH *   PTCLDY    37  25  60 N17G26    30.19R WCI  28
$$

IAZ047>049-059>061-072>074-084-120200-
   CENTRAL IOWA

CITY           SKY/WX    TMP DP  RH WIND       PRES   REMARKS
AMES           CLOUDY    33  26  75 NW21G38   30.09R WCI  21
ANKENY *       CLOUDY    36  27  69 NW20G29   30.10R WCI  25
BOONE *        CLOUDY    32  25  74 NW22G32   30.09R WCI  19
CHARITON *     CLOUDY    34  30  86 NW21G30   30.06R WCI  22
DES MOINES     CLOUDY    35  27  72 NW24G35   30.09R WCI  23
GRINNELL*      CLOUDY    36  30  79 NW22G29   30.02R WCI  24
KNOXVILLE *    CLOUDY    36  28  75 NW22G30   30.04R WCI  24
MARSHALLTOWN   CLOUDY    35  28  75 N22       30.02R WCI  23
NEWTON *       CLOUDY    36  28  75 NW22G32   30.04R WCI  24
PELLA *        CLOUDY    37  29  75 NW21G31   30.05R WCI  26
PERRY *        CLOUDY    31  22  68 NW23G32   30.14R WCI  18
$$

IAZ004>006-015-016-023>025-035-036-120200-
   NORTH CENTRAL IOWA

CITY           SKY/WX    TMP DP  RH WIND       PRES   REMARKS
ALGONA *       CLOUDY    25  21  86 NW24G35   30.14R WCI   9
CLARION *      CLOUDY    28  25  86 NW28G37   30.10R WCI  13
ESTHERVILLE    CLOUDY    22  17  81 N22G33    30.17R WCI   6
FORT DODGE *   CLOUDY    27  19  72 NW14G24   30.14R WCI  16
MASON CITY     CLOUDY    30  22  72 N31G37    30.06R WCI  15
FOREST CITY *  CLOUDY    30  27  86 NW24      30.07R WCI  16
WEBSTER CITY * CLOUDY    30  21  69 NW28G35   30.08R WCI  16
IOWA FALLS *   CLOUDY    32  27  80 NW25G32   30.06R WCI  19
$$

IAZ007>011-017>019-026>030-037>042-050>054-066-120200-
   NORTHEAST IOWA

CITY           SKY/WX    TMP DP  RH WIND       PRES   REMARKS
CEDAR RAPIDS   CLOUDY    35  30  82 N22G36    29.94R WCI  23
CHARLES CITY * CLOUDY    32  28  86 NW21G30   30.00R WCI  20
CLINTON *      CLOUDY    33  31  92 NW18      29.89R WCI  22
DECORAH *      CLOUDY    32  25  74 N21G28    29.94R WCI  20
DUBUQUE        CLOUDY    32  28  85 N23G29    29.88R WCI  19
MONTICELLO *   CLOUDY    34  30  86 NW20      29.92R WCI  22
OELWEIN *      CLOUDY    34  28  80 N26G33    29.97R WCI  21
WATERLOO       CLOUDY    34  25  69 N22G31    29.99R WCI  22
$$

IAZ064-065-067-068-078-120200-
   EAST CENTRAL IOWA

CITY           SKY/WX    TMP DP  RH WIND       PRES   REMARKS
DAVENPORT      CLOUDY    35  32  88 NW15      29.91R WCI  25
IOWA CITY      CLOUDY    38  31  76 N17G25    29.97R WCI  28
MT. PLEASANT * CLOUDY    37  32  82 NW20G31   29.96R WCI  27
MUSCATINE *    CLOUDY    37  34  87 NW14      29.94R WCI  29
QUAD CITIES    CLOUDY    37  34  89 NW15      29.89R WCI  28
$$

IAZ062-063-075>077-085>089-095>099-120200-
   SOUTHEAST IOWA

CITY           SKY/WX    TMP DP  RH WIND       PRES   REMARKS
BURLINGTON     CLOUDY    38  35  89 NW18G30   29.92R WCI  28
FAIRFIELD *    CLOUDY    39  32  75 NW24      29.97R WCI  28
FORT MADISON * CLOUDY    39  36  87 NW23G30   29.95R WCI  29
KEOKUK *       CLOUDY    39  34  81 NW22G32   29.94R WCI  29
OSKALOOSA *    CLOUDY    37  31  77 NW25      30.01R WCI  26
OTTUMWA        CLOUDY    39  30  70 NW22G32   30.00R WCI  29
WASHINGTON *   CLOUDY    37  36  93 NW17G28   29.97R WCI  28
$$

ABBREVIATIONS USED IN REMARKS
   TC - TEMPERATURES IN CELSIUS
  WCI - WIND CHILL INDEX
   HX - HEAT INDEX
  VSB - VISIBILITY
$$





USA.gov is the U.S. government's official web portal to all federal, state and local government web resources and services.